Miscellaneous Local Product
Issued by NWS North Platte, NE

Home | Current Version | Previous Version | Text Only | Print | Product List | Glossary On
Versions: 1 2 3 4 5 6 7 8 9 10 11 12 13 14 15 16 17 18 19 20 21 22 23 24 25 26 27 28 29 30 31 32 33 34 35 36 37 38 39 40 41 42 43 44 45 46 47 48 49 50
000
AXUS43 KLBF 192310
MISLBF


WESTERN AND NORTH CENTRAL NEBRASKA HOURLY WEATHER ROUNDUP
NATIONAL WEATHER SERVICE NORTH PLATTE NE
600 PM CDT SAT APR 19 2014

***STATIONS NOT REPORTING VARIABLES SUCH AS SKY/WEATHER OR
PRESSURE ARE PROVIDED BY THE NEBRASKA DEPARTMENT OF
ROADS...RAWS...AND APRS NETWORKS...AND ARE NOT UNDER
NATIONAL WEATHER SERVICE QUALITY CONTROL***

...OBSERVATIONS IN AND NEAR THE EASTERN PANHANDLE OF NEBRASKA...

CITY           SKY/WX    TMP DP  RH WIND       PRES   REMARKS
PINE RIDGE     PTSUNNY   63  26  24 S8        30.00F
CHADRON        PTSUNNY   64  32  30 SE9       29.99F
ALLIANCE       SUNNY     64  29  26 SE8       30.00F
SIDNEY         CLOUDY    62  33  33 E15       30.01F
WHITECLAY        N/A     63  30  28 SE7         N/A
CRESCENT LAKE    N/A     66  30  26 SE3         N/A
LISCO            N/A     66  25  20 E6          N/A
BIG SPRINGS      N/A     67  37  33 NE8         N/A
LEWELLEN         N/A     75  31  19 E12         N/A
$$

...OBSERVATIONS IN SOUTHWEST NEBRASKA AND FAR NORTHEAST COLORADO...

CITY           SKY/WX    TMP DP  RH WIND       PRES   REMARKS
WRAY           MOCLDY    70  38  30 E13G20    29.99F
HOLYOKE        FAIR      70  36  28 NE13      29.99F
IMPERIAL       PTSUNNY   70  40  33 NE14      29.99S
OGALLALA       PTSUNNY   68  34  27 E7        29.99S
NORTH PLATTE   MOSUNNY   67  44  43 NE10      29.97S
MCCOOK         PTSUNNY   70  49  47 NE8       29.96R
LEXINGTON      PTSUNNY   69  49  49 NE12      29.94F
PAXTON           N/A     68  41  37 E8          N/A
SUTHERLAND       N/A     70  40  33 E8          N/A
MEDICINE CREEK   N/A     67  52  59 SE5         N/A
GOTHENBURG       N/A     68  50  52 E5          N/A
CALLAWAY         N/A     67  50  53 NE8         N/A
$$

...OBSERVATIONS IN NORTH CENTRAL NEBRASKA...

CITY           SKY/WX    TMP DP  RH WIND       PRES   REMARKS
VALENTINE      PTSUNNY   65  15  14 E6        30.02F
THEDFORD       PTSUNNY   67  31  26 E8        30.02R
AINSWORTH      PTSUNNY   67  26  20 E9        30.01F
O`NEILL        PTSUNNY   67  37  33 NE8       30.00S
ORD            MOSUNNY   69  48  47 CALM      29.96F
BROKEN BOW     SUNNY     67  47  48 NE6       29.97F
BROWNLEE         N/A     69  25  19 NE10        N/A
SPRINGVIEW       N/A     67  26  21 CALM        N/A
DUNNING          N/A     66  39  37 E9          N/A
BREWSTER         N/A     69  41  35 E7          N/A
ROSE             N/A     70  43  37 N3          N/A
NEWPORT          N/A     66  33  29 E5          N/A
COMSTOCK         N/A     74  51  44 CALM        N/A
CHAMBERS         N/A     71  43  36 N6          N/A
EWING            N/A     69  43  39 MISG        N/A
$$

...SOME WEATHER OBSERVATIONS FROM AROUND THE REGION...

CITY           SKY/WX    TMP DP  RH WIND       PRES   REMARKS
DENVER         PTSUNNY   63  37  38 E15       30.03S
LARAMIE        CLOUDY    58  29  33 SW13      30.05F
CHEYENNE       MOSUNNY   63  36  36 S14G20    30.03F
SCOTTSBLUFF    MOSUNNY   65  32  29 SE13      30.00F
RAPID CITY     MOSUNNY   63  36  36 S21       29.98S
PIERRE         PTSUNNY   68  22  17 W7        29.97F
WINNER         FAIR      70  22  16 E6        30.01R
SIOUX FALLS    CLOUDY    70  29  21 NW6       29.98F
OMAHA          PTSUNNY   78  44  29 S15       29.95F
GRAND ISLAND   MOSUNNY   77  50  38 NW7       29.93F
KANSAS CITY    PTSUNNY   75  43  31 S17G28    30.06S
WICHITA        PTSUNNY   79  48  33 S25G33    30.00S
HAYS           CLOUDY    77  48  36 S25G32    29.92R
LIBERAL        CLOUDY    77  46  33 SW25G31   29.97R
GOODLAND       SUNNY     69  47  45 NE8G18    29.99R
$$



USA.gov is the U.S. government's official web portal to all federal, state and local government web resources and services.